Flight Track Log - Related Links

Times and Time Zones

All times are in EDT time to prevent confusion due to time zone crossing. See the CHQ993 flight status page for this flight to view local times or setup timezone preferences in your user account.

Time Position Orientation Groundspeed Altitude Reporting Facility
EDT Latitude Longitude Course Direction KTS MPH feet Rate Location/Type
Mon 01:51:17 PM 38.2561 -78.5347 293° West 220 253 10,700  Level Washington Center
Mon 01:52:18 PM 38.2833 -78.6153 293° West 240 276 12,700 2,213 Climbing Washington Center
Mon 01:53:19 PM 38.3142 -78.7064 311° West 256 295 15,200 1,664 Climbing Washington Center
Mon 01:54:17 PM 38.3514 -78.8006 297° West 282 325 16,000 400 Climbing Washington Center
Mon 01:55:19 PM 38.3864 -78.8975 295° West 311 358 16,000  Level Washington Center
Mon 01:56:17 PM 38.4253 -79.0000 296° West 324 373 16,000 252 Level Washington Center
Mon 01:57:18 PM 38.4639 -79.1078 295° West 324 373 16,500 1,475 Climbing Washington Center
Mon 01:58:19 PM 38.5022 -79.2183 294° West 319 367 19,000 2,319 Climbing Washington Center
Mon 01:59:17 PM 38.5406 -79.3239 295° West 324 373 21,100 1,513 Climbing Washington Center
Mon 02:00:18 PM 38.5769 -79.4292 294° West 324 373 22,000 443 Climbing Washington Center
Mon 02:01:19 PM 38.6192 -79.5403 296° West 329 379 22,000  Level Washington Center
Mon 02:02:17 PM 38.6511 -79.6431 292° West 342 394 22,000  Level Washington Center
Mon 02:03:18 PM 38.6953 -79.7572 296° West 342 394 22,000  Level Washington Center
Mon 02:04:18 PM 38.7350 -79.8739 294° West 348 400 22,000  Level Washington Center
Mon 02:05:19 PM 38.7725 -79.9881 293° West 354 407 22,000  Level Washington Center
Mon 02:06:16 PM 38.8161 -80.1078 295° West 348 400 22,000  Level Washington Center
Mon 02:07:18 PM 38.8486 -80.2194 291° West 339 390 22,000  Level Indianapolis Center
Mon 02:08:20 PM 38.8819 -80.3414 289° West 357 411 22,000  Level Indianapolis Center
Mon 02:09:22 PM 38.9172 -80.4661 290° West 366 421 22,000  Level Indianapolis Center
Mon 02:10:24 PM 38.9525 -80.5936 290° West 375 432 22,000  Level Indianapolis Center
Mon 02:11:25 PM 38.9878 -80.7200 290° West 375 432 22,000  Level Indianapolis Center
Mon 02:12:27 PM 39.0261 -80.8453 292° West 376 433 22,000  Level Indianapolis Center
Mon 02:13:29 PM 39.0764 -80.9647 298° West 378 435 22,000 -968 Level Indianapolis Center
Mon 02:14:31 PM 39.1294 -81.0956 298° West 350 403 20,000 -1,463 Descending Indianapolis Center
Mon 02:15:32 PM 39.1725 -81.1958 299° West 326 375 19,000 -585 Descending Indianapolis Center
Mon 02:16:34 PM 39.2133 -81.2989 297° West 326 375 18,800 -629 Descending Indianapolis Center
Mon 02:17:36 PM 39.2542 -81.3969 298° West 319 367 17,700 -1,113 Descending Indianapolis Center
Mon 02:18:38 PM 39.2942 -81.4967 297° West 317 365 16,500 -1,171 Descending Indianapolis Center
Mon 02:19:39 PM 39.3356 -81.5989 298° West 318 366 15,300 -1,317 Descending Indianapolis Center
Mon 02:20:41 PM 39.3864 -81.7217 298° West 321 369 13,800 -1,306 Descending Indianapolis Center
Mon 02:21:43 PM 39.4311 -81.8222 300° West 321 369 12,600 -1,171 Descending Indianapolis Center
Mon 02:22:44 PM 39.4783 -81.9247 301° West 324 373 11,400 -1,161 Descending Indianapolis Center
Mon 02:22:45 PM 39.4789 -81.9214 78° East 322 371 11,400 -381 Level Indianapolis Center
Mon 02:23:47 PM 39.5239 -82.0208 300° West 322 371 11,000 -308 Descending Indianapolis Center
Mon 02:24:03 PM 39.5344 -82.0519 294° West 310 357 11,000  Level Indianapolis Center
Mon 02:24:48 PM 39.5669 -82.1133 304° West 308 354 11,000  Level Indianapolis Center
Mon 02:25:10 PM 39.5861 -82.1572 300° West 299 344 11,000  Level Indianapolis Center
Mon 02:25:50 PM 39.6111 -82.2117 301° West 303 349 11,000 -197 Level Indianapolis Center
Mon 02:26:11 PM 39.6281 -82.2503 300° West 299 344 10,800 -774 Descending Indianapolis Center
Mon 02:26:52 PM 39.6533 -82.3039 301° West 302 348 10,200 -787 Descending Indianapolis Center
Mon 02:27:12 PM 39.6700 -82.3436 299° West 299 344 10,000 -194 Descending Indianapolis Center
Mon 02:27:54 PM 39.6958 -82.3969 302° West 301 346 10,000  Level Indianapolis Center
Mon 02:28:13 PM 39.7158 -82.4428 300° West 301 346 10,000  Level Indianapolis Center
Mon 02:28:56 PM 39.7386 -82.4900 302° West 301 346 10,000  Level Indianapolis Center
Mon 02:29:08 PM 39.7525 -82.5219 299° West 303 349 10,000  Level Indianapolis Center
Mon 02:29:58 PM 39.7911 -82.6033 302° West 302 348 10,000  Level Indianapolis Center
Mon 02:30:03 PM 39.7928 -82.6097 289° West 308 354 10,000 -295 Level Indianapolis Center
Mon 02:30:59 PM 39.8322 -82.6911 302° West 286 329 9,700 -929 Descending Indianapolis Center
Mon 02:31:27 PM 39.8506 -82.7331 300° West 246 283 8,700 -2,032 Descending Indianapolis Center
Mon 02:32:01 PM 39.8661 -82.7683 300° West 251 289 7,600 -2,073 Descending Indianapolis Center
Mon 02:32:22 PM 39.8717 -82.8019 282° West 237 273 6,800 -1,452 Descending Indianapolis Center
Mon 02:33:03 PM 39.8814 -82.8536 284° West 247 284 6,100 -980 Descending Indianapolis Center
Mon 02:33:11 PM 39.8858 -82.8722 287° West 227 261 6,000 -97 Descending Indianapolis Center
Mon 02:34:05 PM 39.8975 -82.9272 285° West 222 255 6,000  Level Indianapolis Center
Mon 02:34:12 PM 39.9003 -82.9428 283° West 199 229 6,000 -484 Level Indianapolis Center
Mon 02:35:07 PM 39.9161 -82.9953 291° West 206 237 5,500 -974 Descending Indianapolis Center
Mon 02:36:09 PM 39.9442 -83.0744 295° West 206 237 4,100 -1,308 Descending Indianapolis Center
Mon 02:36:25 PM 39.9492 -83.0897 293° West 190 219 3,800 -984 Descending Indianapolis Center
Mon 02:37:10 PM 39.9828 -83.1078 338° Northwest 200 230 3,100 -787 Descending Indianapolis Center
Mon 02:37:26 PM 39.9964 -83.1031 15° North 178 205 3,000 -97 Descending Indianapolis Center
Mon 02:38:12 PM 40.0019 -83.0653 79° East 174 200 3,000  Level Indianapolis Center
Mon 02:38:33 PM 40.0006 -83.0381 94° East 166 191 3,000 -581 Level Indianapolis Center
Mon 02:39:14 PM 39.9992 -83.0017 93° East 171 197 2,400 -900 Descending Indianapolis Center
Mon 02:39:33 PM 39.9975 -82.9803 96° East 157 181 2,100 -774 Descending Indianapolis Center
Mon 02:40:16 PM 39.9964 -82.9542 93° East 150 173 1,600 -716 Descending Indianapolis Center
Mon 02:40:40 PM 39.9936 -82.9331 100° East 123 142 1,300 -484 Descending Indianapolis Center
Mon 02:41:18 PM 39.9944 -82.9050 88° East 137 158 1,100 -316 Descending Indianapolis Center

Login

Don't have an account? Register now (free) for customized features, flight alerts, and more!